星链-6378 (STARLINK-6378 )

导读

STARLINK-6378是美国太空探索技术公司Starlink星链互联网卫星星座的一员,于2023年7月16日发射入轨。星链项目旨在构建全球卫星互联网通信网络,为偏远、基础设施薄弱地区提供高速互联网接入服务,该卫星的入轨进一步拓展了星链星座的覆盖范围与服务能力。

Basic Information
目录编号:
57347
目录名称:
STARLINK-6378
国际标识:
2023-099V
轨道中心:
EARTH
卫星名称:
星链-6378
卫星全名:
星链-6378 (STARLINK-6378 )
卫星状态:
在轨 (已飞行1153 天)
发射日期:
2023-07-16 UTC
国别 :
美国 (US)
星等 :
--
This satellite is enrolled in the Space Conjunction Data Service (SCDS) and the current flight risk assessment level is: High Risk
Orbit Information
数据来源 国际轨道数据 AOE轨道数据
星历时间 2026-09-11T10:34:17+0800
16小时前
查看轨道信息
2026-09-06T07:00:00+0800
5天前
查看轨道信息
半长轴 6861.193km 6861.174km
偏心率 0.000142 0.0001389
轨道倾角 43.001° 43.001°
近地点辐角 266.270° 271.465°
升交点赤经 288.669° 317.751°
平近点角 93.799° 180.687°
近地点 482.081km 482.083km
远地点 484.031km 483.991km
周期 94.267分钟 94.266分钟
每日圈数 15.275778 15.275842
Detailed Information
固有亮度:
5
最大亮度:
2.5
卫星平台:
Starlink v1.5
覆盖范围:
全球
运营商:
太空探索技术公司
运营商所在国:
美国
制造商(研发单位):
太空探索技术公司
制造商所在国:
美国
使用方式:
暂无
Satellite Introduction
星链(Starlink)计划是由太空探索技术公司(SpaceX)提出的一个巨型低轨卫星互联网星座项目,计划在2019年至2024年间在太空搭建由约1.2万颗卫星组成的“星链”网络,其中1584颗将部署在地球上空550千米处的近地轨道,并从2020年开始工作。该卫星仍在工作。
2D Orbit Map
3D Orbit Map
Orbit Altitude Analysis Chart
Orbit Inclination Analysis Chart
Orbit Comprehensive Analysis Chart
View Comprehensive Chart
Conjunction Data List
Event ID Objects TCA Miss Dist (km) Collision Risk Probability Collision Risk Index (CRI) Action
CDM_260913-152805-734706-751821
2026-09-13T
15:28:37+0000
0.328 km
远距离
2.715193E-4 高风险 0.84
CDM_260913-223205-734706-751821
2026-09-13T
22:32:18+0000
0.347 km
远距离
2.441635E-4 高风险 0.83
CDM_260913-170205-734706-751821
2026-09-13T
17:02:46+0000
2.261 km
极远距离
1.131074E-6 低风险 0.36
CDM_260914-000605-734706-751821
2026-09-14T
00:06:27+0000
2.305 km
极远距离
1.089887E-6 低风险 0.36
CDM_260913-135405-734706-751821
2026-09-13T
13:54:28+0000
2.356 km
极远距离
1.045485E-6 低风险 0.35
CDM_260913-205805-734706-751821
2026-09-13T
20:58:09+0000
2.726 km
极远距离
8.293384E-7 极低风险 0.33
Miss Distance Evolution Trend with All Objects
Collision Probability Evolution Trend with All Objects